DECAYED

NOAA 16 DEB, 41200 (Decayed)

Orbit data source: Space-Track

NOAA 16 DEB, 41200 was space debris in SSO originally from a launch on Thu, 21 Sep 2000 UTC launched from the Air Force Western Test Range (AFWTR). Debris objects in space refer to the collection of defunct objects orbiting the Earth. Examples of debris include non-operational satellites, rocket bodies, and fragments generated from explosions, collisions, or faulty payload assembly.

Loading next visibility...
Identifier
41200, 2000-055DD
Orbit
Decayed
Last TLE update
2 months ago
Origin
Manufacturer
Unknown
Mission
Decayed spacecraft
Bus & Motor
Unknown
Mass
Unknown
Launch date (UTC)
2000-09-21 (25 years ago)
Launch vehicle
Unknown
Launch site
Air Force Western Test Range (AFWTR)
Object type
Payload
Rocket body
Debris
Shape & HBR
Unknown
Radar Cross Section
Small (<0.1 m²)

Expand to show TLE details & history

TLE from 2 months ago
0 NOAA 16 DEB
1 41200U 00055DD  25126.40391200  .00302189  00000-0  14365-1 0  9995
2 41200  98.8251 294.3317 0019700 242.5780 117.3445 15.17628120490726
Epoch: 2025-05-06T09:41Z
TLE epoch observation values (Epoch: 2025-05-06T09:41:37.996Z)
Latitude
-0.00013°
Longitude
-75.5802°
Altitude
522.312 km
Speed
7.599 km/s
True Right ascension
19h 37m 19s
True Declination
0° 00' 00"
Sunlit
Object was in daylight at epoch
Visualization orbit readout
Visualization observer readout
Orbital elements
Apogee altitude
523.616 km
Perigee altitude
496.477 km
Semi-major axis
6,888.184 km
Eccentricity
0.00197
Inclination
98.8251°
RAAN
294.3317°
Arg. of periapsis
242.578°
True anomaly
Unknown
Mean anomaly
117.3445°
Eccentric anomaly
Unknown
Mean motion
3.79652 °/min
Orbital period
94.82 mins
BSTAR
0.014365
Loading maneuver chart data...
Loading SW <> Apogee altitude chart data...
Loading historical data...
Loading historical data...
Loading historical data...
Loading historical data...
Loading historical data...
Loading historical data...
Loading historical data...

NOAA 16 DEB Visibility forecast

Observer location: undefined°, undefined°

Span
Click to sort rows by Start time (UTC) header in descending order
Start Az.
Max El. time (UTC)
Max El. Az.
Max El.
End time (UTC)
End Az.
4 mins2025-07-03 12:13:49.610Z192.561° SSW2025-07-03 12:15:49.610Z274.945° WNW30.315°2025-07-03 12:17:49.610Z329.274° NNW
|